Time,TemperatureF,DewpointF,PressureIn,WindDirection,WindDirectionDegrees,WindSpeedMPH,WindSpeedGustMPH,Humidity,HourlyPrecipIn,Conditions,Clouds,dailyrainin,SoftwareType,DateUTC
2013-05-19 07:00:00,45.0,-99.9,29.94,SE,140,22.0,-999.0,-999,-99.99,,,-99.99,,2013-05-19 07:00:00,
2013-05-19 08:00:00,41.0,-99.9,29.97,South,190,15.0,-999.0,-999,-99.99,,,-99.99,,2013-05-19 08:00:00,
2013-05-19 08:22:00,41.0,-99.9,29.97,South,190,15.0,-999.0,-999,-99.99,,,-99.99,,2013-05-19 08:22:00,
2013-05-19 08:32:00,41.0,-99.9,29.97,South,190,15.0,-999.0,-999,-99.99,,,-99.99,,2013-05-19 08:32:00,
2013-05-19 08:42:00,41.0,-99.9,29.97,South,190,15.0,-999.0,-999,-99.99,,,-99.99,,2013-05-19 08:42:00,
2013-05-19 08:52:00,41.0,-99.9,29.97,South,190,15.0,-999.0,-999,-99.99,,,-99.99,,2013-05-19 08:52:00,
2013-05-19 16:00:00,47.0,-99.9,30.00,ESE,120,20.0,-999.0,-999,-99.99,,,-99.99,,2013-05-19 16:00:00,
2013-05-19 16:33:00,47.0,-99.9,30.00,ESE,120,20.0,-999.0,-999,-99.99,,,-99.99,,2013-05-19 16:33:00,
2013-05-19 16:42:00,47.0,-99.9,30.00,ESE,120,20.0,-999.0,-999,-99.99,,,-99.99,,2013-05-19 16:42:00,
2013-05-19 16:53:00,47.0,-99.9,30.00,ESE,120,20.0,-999.0,-999,-99.99,,,-99.99,,2013-05-19 16:53:00,
2013-05-19 17:00:00,47.0,-99.9,29.99,ESE,120,15.0,-999.0,-999,-99.99,,,-99.99,,2013-05-19 17:00:00,
2013-05-19 17:22:00,47.0,-99.9,29.99,ESE,120,15.0,-999.0,-999,-99.99,,,-99.99,,2013-05-19 17:22:00,
2013-05-19 17:32:00,47.0,-99.9,29.99,ESE,120,15.0,-999.0,-999,-99.99,,,-99.99,,2013-05-19 17:32:00,
2013-05-19 17:43:00,47.0,-99.9,29.99,ESE,120,15.0,-999.0,-999,-99.99,,,-99.99,,2013-05-19 17:43:00,
2013-05-19 17:52:00,47.0,-99.9,29.99,ESE,120,15.0,-999.0,-999,-99.99,,,-99.99,,2013-05-19 17:52:00,
2013-05-19 18:00:00,61.0,-99.9,29.99,East,100,9.0,-999.0,-999,-99.99,,,-99.99,,2013-05-19 18:00:00,
2013-05-19 18:22:00,61.0,-99.9,29.99,East,100,9.0,-999.0,-999,-99.99,,,-99.99,,2013-05-19 18:22:00,
2013-05-19 18:32:00,61.0,-99.9,29.99,East,100,9.0,-999.0,-999,-99.99,,,-99.99,,2013-05-19 18:32:00,
2013-05-19 18:43:00,61.0,-99.9,29.99,East,100,9.0,-999.0,-999,-99.99,,,-99.99,,2013-05-19 18:43:00,
2013-05-19 18:53:00,61.0,-99.9,29.99,East,100,9.0,-999.0,-999,-99.99,,,-99.99,,2013-05-19 18:53:00,
2013-05-19 19:00:00,68.0,-99.9,29.99,ENE,60,11.0,-999.0,-999,-99.99,,,-99.99,,2013-05-19 19:00:00,
2013-05-19 19:22:00,68.0,-99.9,29.99,ENE,60,11.0,-999.0,-999,-99.99,,,-99.99,,2013-05-19 19:22:00,
2013-05-19 19:32:00,68.0,-99.9,29.99,ENE,60,11.0,-999.0,-999,-99.99,,,-99.99,,2013-05-19 19:32:00,
2013-05-19 19:42:00,68.0,-99.9,29.99,ENE,60,11.0,-999.0,-999,-99.99,,,-99.99,,2013-05-19 19:42:00,
2013-05-19 19:52:00,68.0,-99.9,29.99,ENE,60,11.0,-999.0,-999,-99.99,,,-99.99,,2013-05-19 19:52:00,
2013-05-19 20:00:00,70.0,-99.9,30.00,ENE,70,5.0,-999.0,-999,-99.99,,,-99.99,,2013-05-19 20:00:00,
2013-05-19 20:22:00,70.0,-99.9,30.00,ENE,70,5.0,-999.0,-999,-99.99,,,-99.99,,2013-05-19 20:22:00,
2013-05-19 20:32:00,70.0,-99.9,30.00,ENE,70,5.0,-999.0,-999,-99.99,,,-99.99,,2013-05-19 20:32:00,
2013-05-19 20:42:00,70.0,-99.9,30.00,ENE,70,5.0,-999.0,-999,-99.99,,,-99.99,,2013-05-19 20:42:00,
2013-05-19 20:52:00,70.0,-99.9,30.00,ENE,70,5.0,-999.0,-999,-99.99,,,-99.99,,2013-05-19 20:52:00,
2013-05-19 21:00:00,72.0,-99.9,29.97,ENE,70,7.0,-999.0,-999,-99.99,,,-99.99,,2013-05-19 21:00:00,
2013-05-19 21:22:00,72.0,-99.9,29.97,ENE,70,7.0,-999.0,-999,-99.99,,,-99.99,,2013-05-19 21:22:00,
2013-05-19 21:32:00,72.0,-99.9,29.97,ENE,70,7.0,-999.0,-999,-99.99,,,-99.99,,2013-05-19 21:32:00,
2013-05-19 21:43:00,72.0,-99.9,29.97,ENE,70,7.0,-999.0,-999,-99.99,,,-99.99,,2013-05-19 21:43:00,
2013-05-19 21:53:00,72.0,-99.9,29.97,ENE,70,7.0,-999.0,-999,-99.99,,,-99.99,,2013-05-19 21:53:00,
2013-05-19 22:00:00,73.0,-99.9,29.94,SE,130,10.0,-999.0,-999,-99.99,,,-99.99,,2013-05-19 22:00:00,
2013-05-19 22:23:00,73.0,-99.9,29.94,SE,130,10.0,-999.0,-999,-99.99,,,-99.99,,2013-05-19 22:23:00,
2013-05-19 22:33:00,73.0,-99.9,29.94,SE,130,10.0,-999.0,-999,-99.99,,,-99.99,,2013-05-19 22:33:00,
2013-05-19 22:43:00,73.0,-99.9,29.94,SE,130,10.0,-999.0,-999,-99.99,,,-99.99,,2013-05-19 22:43:00,
2013-05-19 22:53:00,73.0,-99.9,29.94,SE,130,10.0,-999.0,-999,-99.99,,,-99.99,,2013-05-19 22:53:00,
2013-05-19 23:00:00,69.0,-99.9,29.95,ESE,110,11.0,-999.0,-999,-99.99,,,-99.99,,2013-05-19 23:00:00,
2013-05-19 23:22:00,69.0,-99.9,29.95,ESE,110,11.0,-999.0,-999,-99.99,,,-99.99,,2013-05-19 23:22:00,
2013-05-19 23:32:00,69.0,-99.9,29.95,ESE,110,11.0,-999.0,-999,-99.99,,,-99.99,,2013-05-19 23:32:00,
2013-05-19 23:42:00,69.0,-99.9,29.95,ESE,110,11.0,-999.0,-999,-99.99,,,-99.99,,2013-05-19 23:42:00,
2013-05-19 23:53:00,69.0,-99.9,29.95,ESE,110,11.0,-999.0,-999,-99.99,,,-99.99,,2013-05-19 23:53:00,